EHI
8 8 8 10 11 10 9 10 10 9 7 7 6 6 6 8 9 7 6 4 1 0 0 0 0 0 0 1 2 2 3 4 5 6 6 3 1 0
11 10 9 10 12 12 12 11 11 11 10 8 6 6 8 9 9 8 7 5 3 1 0 0 0 0 0 0 1 1 2 3 4 5 5 3 1 0
14 12 10 11 14 15 14 13 15 15 13 9 6 7 11 11 10 10 8 7 6 2 0 0 0 0 0 0 0 0 1 1 2 3 3 2 1 0
13 12 12 15 17 17 16 16 17 18 16 12 8 9 13 13 11 10 8 7 5 2 0 0 0 0 0 0 0 0 0 0 1 1 2 1 0 0
11 12 14 18 21 21 20 19 19 18 16 13 11 13 15 14 12 10 9 7 5 2 0 0 0 0 0 0 0 0 0 0 0 0 0 0 0 0
12 13 14 17 20 22 21 21 21 20 17 14 14 16 18 18 16 12 9 8 5 3 2 1 0 0 0 0 0 0 0 0 0 0 0 0 0 0
14 14 15 15 16 17 15 15 18 19 18 15 16 19 20 21 19 13 10 8 7 5 4 3 1 1 1 0 0 0 0 0 0 0 0 0 0 0
15 15 14 13 12 11 9 7 9 12 14 15 17 20 22 20 18 15 12 10 8 7 6 5 3 2 1 0 0 0 0 0 0 0 0 0 0 0
16 16 14 12 11 11 9 5 5 6 9 14 17 20 20 19 18 16 15 12 10 9 7 5 4 2 1 0 0 0 0 0 0 0 0 0 0 0
15 15 14 12 11 11 11 9 9 8 7 9 14 15 15 16 17 18 17 14 12 10 7 5 3 2 1 0 0 0 0 0 0 0 0 0 0 0
16 15 13 11 10 10 11 12 12 11 9 8 8 8 8 8 12 16 18 16 12 11 9 6 4 3 2 2 1 0 0 0 0 0 0 0 0 0
18 16 11 8 6 6 10 13 14 12 11 9 7 6 6 6 8 13 16 16 14 13 11 6 3 2 3 4 3 1 1 0 0 0 0 0 0 0
16 15 11 6 3 2 6 10 12 12 12 11 10 9 10 10 10 13 16 16 16 15 12 6 2 1 2 4 5 4 2 1 0 0 0 0 0 0
12 11 8 4 1 0 2 4 5 6 10 12 11 11 11 12 14 17 19 19 18 16 13 8 4 2 2 3 4 5 4 1 0 0 0 0 0 0
7 6 4 1 0 0 0 1 1 4 9 11 10 10 11 13 16 20 22 21 18 16 13 10 8 5 3 2 3 3 3 1 1 0 0 0 0 0
6 4 3 2 2 2 2 3 4 6 10 11 11 11 12 14 16 18 20 19 16 14 12 11 10 9 6 3 2 2 1 0 0 1 1 1 1 1
8 7 6 6 5 5 5 6 6 8 10 12 13 13 13 14 15 15 16 16 15 13 12 11 10 8 7 4 2 1 1 1 1 1 2 3 2 2
8 11 12 10 8 7 7 7 8 9 11 13 15 15 14 13 13 13 13 14 14 13 13 11 8 6 5 4 3 2 2 2 2 2 2 3 3 3
8 12 14 12 10 8 7 7 8 9 12 14 15 16 14 13 12 11 11 12 12 13 13 12 8 6 5 4 3 1 1 2 4 4 3 3 3 3
7 11 13 12 11 9 8 8 8 10 12 13 14 15 14 12 11 9 8 8 10 11 11 10 7 6 5 5 3 2 1 2 4 5 5 5 4 3
6 8 10 10 10 10 10 10 10 10 11 11 12 13 12 10 9 7 5 5 6 7 7 7 6 5 5 5 4 4 3 2 3 5 5 5 4 3
5 6 6 6 7 10 11 11 10 10 10 10 10 10 9 7 6 4 3 3 3 4 4 5 5 5 4 4 4 4 4 3 2 2 2 2 2 2
4 4 4 4 5 8 10 11 11 11 10 9 9 8 7 6 4 3 2 3 3 3 3 4 5 5 4 4 4 3 3 3 2 1 0 0 1 1
Wind_Speed
4 4 4 3 3 3 3 4 4 4 3 1 2 1 2 1 0 2 2 2 2 2 2 2 3 3 3 3 4 5 5 5 6 6 7 7 8 8
3 3 4 4 3 3 3 3 4 4 4 2 1 2 2 2 1 2 2 3 3 2 2 2 2 2 3 3 4 4 4 4 5 5 6 6 6 6
4 4 4 4 3 3 3 3 3 3 4 3 2 1 2 3 2 2 3 3 2 4 3 2 1 2 2 3 4 4 4 5 5 5 6 6 7 6
4 4 4 3 4 4 3 3 3 3 4 4 3 2 2 3 2 3 3 2 1 5 5 3 2 1 1 2 4 4 5 5 5 5 5 6 7 6
4 4 4 4 5 3 4 3 3 3 3 4 4 2 3 2 2 3 2 2 2 4 5 5 4 3 2 2 2 4 5 5 5 5 5 6 6 6
4 5 5 4 4 5 4 4 3 3 3 4 4 3 3 2 2 2 2 2 1 1 2 3 4 5 4 4 3 4 4 5 5 5 5 6 6 5
5 5 4 3 4 4 4 3 3 4 4 4 4 3 2 2 2 2 2 2 1 1 2 2 3 3 4 5 5 4 4 4 4 5 5 5 5 5
5 5 5 5 4 5 4 5 5 5 5 5 4 4 3 3 2 3 2 2 2 1 2 2 2 2 2 2 5 6 5 4 5 5 5 5 6 5
6 5 5 3 5 5 5 7 7 7 7 7 6 6 5 3 4 4 3 3 3 1 2 3 2 2 2 3 8 7 6 5 4 5 5 6 6 6
6 6 6 5 4 4 5 5 6 5 6 7 6 6 5 4 5 5 4 4 3 2 2 3 2 2 2 3 9 8 7 6 5 5 5 6 6 5
7 6 6 6 2 3 6 6 6 5 5 5 5 5 4 5 5 5 4 4 3 2 3 3 2 2 2 2 6 9 8 8 7 6 6 6 6 6
6 6 6 6 3 4 7 6 6 5 4 4 5 6 7 6 7 7 5 4 3 2 2 2 2 2 2 2 3 5 6 7 8 8 7 7 6 6
5 5 4 6 6 7 8 7 5 5 5 5 5 5 5 5 6 6 5 5 4 3 2 3 3 3 3 2 2 3 4 4 5 6 8 8 7 6
6 5 2 5 5 7 7 5 5 6 6 5 5 4 4 4 4 4 4 4 4 4 2 3 3 3 4 3 3 3 3 3 4 4 4 8 9 9
5 3 2 4 6 7 8 8 7 6 5 5 5 5 4 3 4 4 4 4 5 5 4 4 5 4 5 4 3 3 3 3 4 4 4 4 4 5
6 5 7 8 8 6 5 7 7 5 5 5 4 4 3 3 4 4 4 4 4 4 5 5 6 6 5 4 4 4 4 3 4 4 3 3 4 5
4 5 5 5 6 6 6 5 5 5 6 5 5 4 4 4 4 4 4 4 4 4 4 4 5 5 5 5 5 4 4 3 3 3 4 5 5 5
5 6 5 5 6 6 5 5 6 5 5 5 5 5 5 5 5 4 4 5 5 4 4 4 4 4 4 5 4 5 4 3 3 4 5 5 5 4
6 6 6 5 5 5 5 5 5 5 5 5 5 5 5 5 5 5 5 5 5 4 4 4 4 5 6 5 4 5 4 3 4 4 4 4 5 4
6 6 6 5 5 5 5 5 5 5 5 5 5 5 5 5 5 5 5 6 5 5 5 5 5 5 6 5 3 3 6 5 4 4 4 4 4 2
5 6 6 5 6 5 5 5 5 5 5 5 5 5 5 5 5 5 5 5 6 6 6 5 4 5 5 4 4 4 3 5 3 4 4 5 5 6
5 5 5 5 5 5 4 5 5 5 5 5 5 5 5 5 5 6 5 5 5 6 6 5 4 5 5 6 6 5 4 4 5 5 5 6 6 6
5 5 5 5 5 4 4 5 6 5 5 4 4 5 5 4 4 5 5 5 5 5 5 5 5 5 5 5 5 5 5 5 5 5 5 5 7 6
Wind_Direction
249 239 252 260 262 266 267 270 273 275 274 243 248 261 267 268 121 246 260 151 197 220 227 231 235 238 237 227 222 218 213 208 212 210 205 201 203 203
264 270 266 261 266 264 262 262 265 271 279 291 277 291 306 281 196 256 252 170 182 191 203 217 225 230 225 212 201 199 198 197 198 194 189 186 184 185
259 253 261 276 277 272 263 261 258 263 269 280 283 274 269 278 278 272 256 240 167 156 161 180 217 222 220 208 199 194 192 191 193 187 182 178 179 185
262 261 261 260 263 270 272 267 263 265 261 273 280 273 262 256 264 267 262 245 233 143 157 169 179 170 182 196 199 193 189 188 189 186 185 182 182 186
264 261 258 259 262 262 261 265 260 252 249 256 266 276 268 259 258 251 250 257 251 159 169 179 172 172 177 178 182 188 186 184 183 184 185 185 182 184
261 261 259 260 259 258 251 248 255 257 248 252 255 252 253 242 251 259 247 222 246 233 182 177 170 182 183 183 176 171 176 182 183 185 186 185 183 186
252 255 256 272 291 278 279 266 254 256 256 254 253 254 259 248 251 257 260 256 214 241 238 209 191 200 185 188 183 168 166 176 184 186 187 187 188 190
256 256 245 232 231 231 259 275 278 265 269 267 263 261 260 254 255 257 254 257 251 198 257 254 218 224 207 185 143 154 163 172 183 185 187 189 188 188
260 259 260 249 245 250 223 224 238 243 250 263 269 268 261 251 246 245 246 260 266 228 241 263 246 240 229 139 145 160 168 172 175 181 186 186 186 189
256 257 261 261 264 267 262 255 252 237 232 241 256 262 263 260 245 245 242 238 231 208 206 260 262 254 235 162 156 168 174 178 182 183 185 186 187 192
247 246 250 250 228 253 258 259 262 256 220 226 250 258 268 256 253 246 233 234 234 208 199 246 254 266 252 206 163 171 178 184 192 195 197 199 201 206
237 235 232 245 224 235 252 257 256 257 260 226 221 226 229 223 221 236 242 244 253 247 174 228 245 245 242 215 176 175 186 188 196 201 201 204 208 225
251 243 222 187 218 236 253 255 255 263 257 249 241 230 221 218 216 219 233 247 255 258 197 214 240 235 245 241 221 204 204 199 199 203 201 201 205 228
262 262 235 172 220 236 241 247 250 251 250 247 246 243 238 231 223 218 212 234 255 266 242 228 247 244 249 249 242 219 223 220 215 218 212 188 203 214
269 298 291 215 229 228 225 231 233 235 240 243 247 247 242 235 232 216 206 210 227 233 218 221 241 243 251 255 247 233 232 229 227 227 224 218 214 210
248 231 219 224 235 249 228 216 227 234 241 246 249 248 241 227 224 225 218 209 217 215 200 210 231 240 243 252 253 245 237 229 220 225 230 232 230 227
253 244 237 228 226 229 231 231 229 228 228 234 238 242 237 229 228 227 226 230 231 230 210 200 209 223 244 252 246 243 239 236 226 209 227 236 231 228
247 246 242 240 241 240 236 232 229 229 233 236 235 236 240 238 234 228 224 231 235 234 231 216 199 205 222 223 240 245 240 239 234 217 234 241 241 228
237 248 251 250 249 250 249 248 244 238 236 237 236 235 238 240 237 234 233 237 239 236 230 222 213 218 237 243 211 219 246 247 240 235 236 242 250 249
242 249 250 250 249 249 247 249 251 246 235 237 238 238 238 239 238 235 233 238 241 238 233 224 222 225 238 256 262 218 215 239 245 248 247 247 250 238
250 255 257 256 253 251 250 249 249 247 245 243 241 239 241 244 247 247 243 234 239 240 237 232 224 214 228 239 243 234 213 199 234 256 257 250 246 241
265 263 261 261 258 255 251 251 250 248 244 244 248 244 242 242 245 246 246 245 241 243 249 247 213 204 219 228 238 238 233 207 196 218 251 271 266 263
266 269 268 264 258 251 250 248 250 251 246 247 252 252 251 248 249 251 249 248 251 251 248 244 231 218 223 231 237 240 235 233 231 218 216 224 226 241